Temperature
18 17 16 17 18 19 19 18 18 19 19 19 18 18 18 19 19 19 19 20 20 20 20 20 20 19 19 19 19 19 18 18 18 17 17 17 16 16 16 16 16 16 15 15
17 17 18 19 19 19 19 18 18 19 20 19 18 18 18 19 19 20 20 20 20 20 20 20 20 20 19 19 19 19 18 18 18 17 17 17 16 16 16 16 16 16 15 15
17 18 19 19 19 19 19 18 18 19 19 19 19 18 18 18 19 20 20 20 20 20 20 20 20 20 19 19 19 19 18 18 18 18 17 17 16 16 16 16 16 16 15 15
18 19 20 19 19 19 19 20 20 20 18 18 19 17 18 18 18 19 20 20 20 20 20 20 20 20 20 19 19 19 19 18 18 18 17 17 17 16 16 16 16 16 15 15
18 19 19 19 19 20 19 20 20 19 18 18 18 17 18 18 18 18 19 20 20 20 20 20 20 20 20 19 19 19 19 18 18 18 17 17 17 16 16 16 16 15 15 15
19 19 19 19 20 20 20 20 19 18 17 18 18 18 18 17 18 19 19 20 21 21 21 21 20 20 20 19 19 19 19 18 18 18 17 17 17 17 16 16 16 16 15 15
19 19 20 20 20 20 19 18 17 17 17 17 18 18 18 19 19 20 20 20 21 21 21 21 20 20 20 20 19 19 19 18 18 18 17 17 17 17 16 16 16 16 15 15
18 18 20 20 20 19 19 18 17 17 17 17 19 19 19 20 21 22 22 22 21 21 21 21 21 20 20 20 19 19 19 18 18 18 17 17 17 17 16 16 16 15 15 15
18 19 20 21 21 20 19 18 18 17 18 18 18 19 20 21 20 21 21 21 21 21 21 21 21 21 20 20 19 19 19 18 18 18 17 17 17 17 16 16 16 15 15 15
19 19 20 21 21 21 20 19 17 18 18 18 18 19 19 20 20 20 20 20 21 21 21 21 21 21 20 20 20 19 19 18 18 18 17 17 17 17 16 16 16 15 15 15
20 19 20 20 20 20 20 20 18 17 17 17 18 19 20 20 20 19 20 21 21 21 21 21 21 21 20 20 19 19 19 18 18 18 17 17 17 16 16 16 16 15 15 15
19 17 18 19 20 21 20 20 18 18 18 17 17 18 21 20 20 21 21 21 22 22 22 21 21 21 20 20 19 19 19 18 18 18 17 17 17 16 16 16 16 15 15 15
20 17 18 18 19 20 21 21 19 18 17 17 17 19 20 20 20 21 21 21 22 21 21 21 21 20 20 20 20 19 19 18 18 18 17 17 17 16 16 16 16 15 15 15
20 18 18 19 19 19 20 21 21 19 17 18 18 19 20 20 20 20 21 22 22 21 21 21 21 20 20 20 19 19 19 18 18 17 17 17 17 16 16 16 15 15 15 14
19 19 19 19 20 20 21 21 21 20 19 18 19 20 20 20 20 21 21 21 21 21 21 21 21 20 20 19 19 19 18 18 18 17 17 17 17 16 16 16 15 15 14 14
18 19 20 20 21 20 21 21 21 21 20 20 20 20 20 21 21 21 21 21 20 20 21 21 21 20 20 19 19 19 18 18 17 17 17 17 16 16 16 16 15 15 14 14
18 18 19 18 19 20 20 21 21 21 20 20 20 20 20 19 20 21 21 21 21 21 21 21 21 20 20 20 19 19 18 18 17 17 17 16 16 16 16 15 15 15 14 14
18 17 16 17 19 20 20 20 21 20 20 20 20 20 20 20 21 22 22 22 21 21 21 21 21 20 20 20 19 19 18 18 17 17 17 16 16 16 15 15 15 14 14 14
18 17 16 16 18 19 20 21 21 21 20 20 19 19 20 21 20 20 21 22 22 22 21 21 21 20 20 19 19 18 18 17 17 17 17 16 16 16 15 15 15 14 14 14
17 16 16 16 18 18 19 21 22 20 19 20 20 19 19 19 17 18 21 21 21 21 21 21 20 20 19 19 19 18 18 17 17 17 17 16 16 16 15 15 14 14 14 13
18 17 16 16 17 17 19 20 21 19 19 20 20 21 20 19 19 20 21 20 20 20 20 20 20 19 19 19 18 18 18 17 17 17 17 16 16 16 15 15 14 14 13 13
17 17 16 15 16 17 19 20 19 19 20 21 21 21 21 21 20 20 20 20 20 20 19 19 19 19 19 18 18 18 18 18 17 17 16 16 16 15 15 14 14 14 13 13
16 17 15 16 17 18 20 20 21 21 21 21 21 21 21 20 20 20 19 19 19 19 19 19 18 18 18 18 17 17 17 17 17 16 16 16 15 15 14 14 14 13 13 13
16 16 15 15 16 18 19 20 21 21 21 21 21 21 20 20 19 19 19 18 18 18 18 18 18 18 17 17 17 17 17 16 16 16 16 15 15 15 14 14 13 13 13 12
16 16 15 15 16 18 19 20 20 20 20 20 20 20 20 19 19 18 18 18 18 17 17 17 17 17 17 16 16 16 16 16 15 15 15 15 14 14 14 13 13 13 13 12
15 16 16 15 17 16 18 19 20 20 19 19 19 19 19 19 18 18 17 17 17 17 17 16 16 16 16 16 15 15 15 15 15 15 14 14 14 13 13 13 13 12 12 12
Wind_Speed
3 5 3 4 4 5 6 6 5 3 3 4 5 6 6 7 7 9 9 9 9 8 7 8 8 8 7 7 7 7 6 5 4 3 3 3 2 2 2 4 7 8 8 9
5 2 3 4 4 6 6 6 4 2 3 4 4 4 5 7 9 11 12 11 10 8 7 7 8 8 8 8 8 7 7 6 5 3 3 3 3 2 1 3 5 7 8 8
4 2 3 6 5 5 3 6 5 4 3 3 4 1 4 6 6 7 9 10 10 12 12 10 9 8 9 9 9 8 7 6 5 5 4 4 4 3 3 3 2 4 6 8
2 1 4 5 3 4 2 4 7 6 5 2 4 2 6 7 7 8 9 10 11 12 11 10 10 9 9 9 8 8 7 6 5 6 6 6 4 3 1 1 1 3 5 6
2 3 5 4 3 4 3 4 6 4 3 1 2 3 6 5 8 12 12 12 12 13 13 12 11 11 10 9 9 8 8 6 5 6 7 7 5 3 2 1 2 2 3 5
2 2 2 3 1 3 3 4 5 4 3 1 5 5 6 7 12 12 12 13 13 13 12 11 10 9 8 8 8 8 8 6 5 6 6 7 7 5 4 3 2 1 2 3
2 1 1 2 3 2 4 5 3 3 2 4 3 4 8 10 10 13 14 14 13 13 12 12 12 11 10 10 9 9 9 7 6 6 6 6 6 6 5 4 2 1 1 1
2 2 3 4 5 4 3 5 6 4 3 3 2 4 7 7 8 10 11 11 12 13 13 14 14 13 12 12 11 10 10 7 6 6 5 5 5 4 4 4 3 3 2 1
4 3 4 5 4 7 4 3 5 5 1 1 3 4 6 3 3 7 9 10 12 13 14 13 13 13 12 12 12 12 11 8 7 7 6 5 5 5 4 4 3 2 2 1
6 2 3 3 1 1 5 5 4 3 2 1 4 3 4 4 5 7 10 12 12 11 11 12 12 12 12 12 10 10 10 9 7 7 6 6 5 5 5 4 4 2 1 2
4 4 1 2 5 6 3 3 4 3 4 3 2 6 5 8 9 10 11 12 13 13 13 12 12 11 11 10 10 9 9 8 7 7 6 6 5 5 5 4 3 3 2 2
4 5 1 5 5 5 5 5 6 4 2 3 3 6 6 7 8 9 10 10 11 12 12 11 11 10 10 10 10 10 9 8 8 7 7 7 6 5 5 4 3 3 3 2
5 5 3 5 5 2 2 4 6 5 4 3 3 6 4 0 3 6 8 9 9 9 9 9 9 11 11 11 10 10 9 9 8 8 8 7 6 6 5 5 4 4 3 3
6 5 6 6 6 4 4 4 5 6 4 4 6 7 5 3 4 6 7 9 9 10 10 10 10 10 11 11 11 10 10 9 9 8 8 8 8 7 6 5 5 4 4 4
5 3 4 6 6 4 5 6 6 6 8 8 7 7 8 7 8 8 8 8 8 8 9 11 11 10 10 10 10 10 10 9 9 9 9 9 8 7 6 6 5 4 4 4
4 4 1 3 4 3 4 7 8 8 6 6 5 7 8 5 3 5 7 9 9 10 11 11 11 11 11 11 11 10 10 10 9 10 9 8 8 7 7 6 5 5 4 3
4 5 2 3 5 2 4 7 7 5 5 6 7 8 4 2 4 7 9 10 11 11 11 11 11 12 12 12 11 12 11 10 10 10 9 9 8 8 7 7 6 5 4 4
7 6 4 1 2 2 7 4 4 4 4 4 5 4 5 6 5 4 6 10 10 10 10 11 10 10 9 9 9 10 9 10 10 10 9 9 9 8 7 7 6 5 4 4
7 8 5 3 2 5 7 4 2 4 2 4 4 3 3 3 4 3 2 5 8 9 8 9 10 9 8 8 9 9 9 9 10 10 10 10 10 9 8 8 7 5 5 4
4 6 6 4 3 5 7 7 2 5 2 5 3 4 4 6 3 4 4 2 3 3 4 5 5 5 7 7 8 10 10 10 11 11 10 9 10 10 10 9 7 5 5 5
2 3 4 4 4 7 8 6 2 4 6 4 3 5 6 6 6 4 2 2 2 2 2 4 5 6 6 6 8 9 9 11 11 9 8 8 9 10 9 8 6 5 5 4
6 5 5 5 4 7 6 2 5 7 4 3 4 5 6 4 3 3 3 3 3 2 2 4 5 4 3 5 7 7 8 9 7 7 8 8 8 8 7 7 6 6 6 5
5 7 6 7 7 6 3 4 4 5 5 4 5 5 7 6 4 3 3 3 2 3 3 3 5 4 2 4 6 7 6 5 7 7 7 7 7 6 7 8 8 5 6 5
3 3 4 2 4 3 2 0 1 3 4 4 5 6 6 6 5 4 3 2 2 2 3 3 5 4 2 2 3 4 4 5 7 7 6 5 5 5 5 5 6 6 7 7
4 2 3 2 3 1 3 1 1 2 4 5 5 5 6 7 5 4 3 2 2 2 2 4 4 4 2 1 1 1 3 5 6 5 5 4 5 5 5 5 6 7 8 8
3 5 6 6 8 6 5 4 3 4 4 5 6 4 4 6 6 5 3 2 3 3 3 4 3 3 2 2 1 1 2 4 5 4 4 4 4 4 4 4 4 6 7 9
Wind_Direction
40 77 114 176 178 150 142 133 139 172 169 136 158 174 186 193 173 173 179 179 178 178 177 164 155 148 143 140 135 135 130 132 120 107 106 100 89 64 47 54 65 67 63 60
54 63 194 177 157 126 128 126 130 132 161 149 159 204 211 204 193 188 187 188 184 175 170 168 159 151 149 150 145 142 140 139 136 137 141 135 128 108 85 48 53 57 58 57
128 219 162 137 133 130 141 159 167 160 128 123 127 269 233 229 214 202 193 187 185 178 177 173 165 162 155 158 160 155 151 145 140 128 109 89 71 53 40 30 20 26 53 59
109 196 134 128 139 145 167 179 156 151 126 189 164 205 253 220 213 212 203 189 189 185 179 176 170 166 166 168 163 155 151 145 138 126 121 125 127 132 168 166 43 30 45 54
152 152 136 139 186 153 175 164 144 150 135 92 186 168 262 208 215 219 209 198 191 187 182 180 178 173 167 162 157 154 146 140 139 133 133 130 130 140 132 97 70 38 22 37
152 189 163 174 185 146 138 83 67 57 75 283 218 179 248 213 210 206 205 199 193 187 183 181 180 165 158 155 151 148 144 145 149 141 139 139 141 138 124 111 94 30 10 10
27 6 173 142 88 56 89 98 65 19 3 253 230 195 243 230 211 198 195 196 192 184 179 177 175 172 165 160 157 152 148 153 157 149 149 148 150 148 147 152 151 137 50 9
124 283 221 187 169 171 172 138 152 176 217 280 294 234 261 254 214 194 186 184 183 182 183 183 180 176 170 166 163 158 157 161 165 159 157 156 155 152 154 159 159 164 173 199
168 238 249 208 179 149 152 188 178 142 179 290 290 292 314 4 168 175 175 175 185 187 186 184 180 177 172 170 170 166 164 167 173 168 156 156 158 154 154 153 148 160 183 164
155 183 239 206 108 270 170 163 105 113 132 285 300 280 249 231 194 186 183 187 193 189 186 183 180 179 176 174 172 167 168 172 174 170 166 164 165 159 151 139 140 150 143 94
142 140 223 155 197 204 176 157 133 132 156 157 262 276 235 208 199 192 196 194 190 189 188 187 185 181 175 169 168 170 173 171 172 171 165 158 162 156 148 144 150 148 129 112
142 121 179 249 255 202 191 191 155 154 209 176 187 270 276 216 207 193 195 195 191 189 187 185 181 174 172 174 175 177 178 176 179 174 166 165 162 154 151 150 156 145 131 113
129 110 77 348 338 323 232 210 170 146 134 163 186 266 311 344 196 192 189 191 187 182 178 174 174 177 180 181 182 182 183 183 179 171 167 163 165 163 163 162 156 145 137 121
117 119 159 194 220 225 243 241 194 150 163 212 222 244 286 267 218 208 198 188 181 181 178 178 182 184 185 185 187 186 187 182 175 171 169 172 178 175 172 166 155 149 144 132
110 150 209 230 238 224 231 234 221 204 195 199 230 228 244 235 218 206 194 179 174 180 183 185 188 188 187 187 188 185 185 181 174 170 176 184 181 172 167 166 162 154 149 147
117 160 191 294 267 247 267 256 234 230 224 217 228 252 252 233 197 186 184 175 180 189 192 192 191 190 191 191 190 185 186 183 173 175 183 180 172 169 171 171 165 158 158 151
151 147 143 270 296 1 279 245 221 224 230 198 216 240 237 194 201 199 190 185 192 196 195 193 195 197 197 196 192 191 189 180 175 180 182 179 174 173 178 174 166 170 174 167
154 141 144 188 39 243 251 258 189 189 253 229 211 222 184 184 195 195 184 186 197 199 197 197 196 197 197 192 190 187 178 177 179 182 185 184 177 179 179 174 179 183 178 177
161 145 135 140 191 277 294 291 212 168 280 273 211 206 193 170 83 5 283 193 197 199 198 199 195 191 186 185 183 173 176 179 182 188 190 190 183 181 180 185 191 190 182 191
94 112 128 139 167 230 253 278 277 110 297 293 206 190 182 121 121 253 264 195 184 188 190 189 176 169 178 187 174 173 182 184 194 198 195 191 186 184 189 194 193 189 190 203
86 84 140 170 204 252 255 275 77 136 231 255 181 156 149 163 191 210 169 137 153 159 161 154 152 168 185 177 167 179 185 198 204 195 187 187 189 191 193 191 189 188 192 194
181 173 188 160 186 248 268 139 164 203 200 179 154 147 146 150 132 118 118 122 110 101 109 135 147 161 165 160 164 179 198 205 188 178 181 188 191 196 193 186 191 188 186 195
189 189 184 184 207 240 254 197 206 166 162 174 163 163 146 132 125 117 110 107 100 110 123 135 143 142 143 157 163 181 204 182 166 168 182 190 192 196 188 188 193 193 194 203
271 151 134 198 259 269 287 89 108 152 158 162 154 148 141 139 138 126 120 114 100 101 124 127 126 129 147 174 172 189 189 166 160 173 186 186 187 195 197 197 197 199 205 212
233 147 134 209 253 336 343 296 199 122 113 112 119 130 142 136 131 136 135 134 126 110 113 122 133 146 166 162 151 170 167 157 164 174 185 188 190 192 202 209 212 211 217 213
222 181 176 213 215 184 218 239 205 150 146 141 129 119 122 134 137 133 134 136 122 112 106 105 107 117 130 126 111 128 161 161 164 176 190 194 195 200 206 215 244 248 239 241
Height
1523 1528 1533 1532 1530 1531 1534 1539 1543 1542 1537 1540 1544 1545 1544 1544 1546 1548 1549 1551 1552 1554 1557 1558 1560 1561 1563 1564 1565 1565 1566 1567 1567 1567 1567 1567 1567 1566 1566 1565 1564 1564 1563 1561
1529 1532 1530 1528 1528 1530 1534 1541 1543 1541 1537 1541 1545 1546 1543 1543 1544 1545 1546 1548 1550 1553 1555 1557 1558 1560 1561 1563 1564 1565 1566 1567 1567 1567 1567 1567 1567 1567 1566 1566 1565 1564 1563 1562
1531 1530 1527 1528 1530 1532 1536 1540 1541 1541 1540 1541 1546 1550 1546 1543 1542 1543 1545 1546 1548 1550 1552 1554 1556 1558 1560 1562 1563 1564 1565 1566 1567 1567 1567 1567 1567 1567 1567 1566 1565 1565 1564 1562
1530 1527 1527 1530 1532 1533 1539 1533 1535 1538 1545 1552 1549 1562 1548 1542 1541 1541 1541 1543 1545 1548 1550 1552 1554 1556 1558 1560 1562 1564 1564 1565 1566 1566 1567 1567 1567 1567 1567 1566 1566 1565 1564 1563
1531 1528 1529 1532 1531 1530 1534 1531 1534 1539 1545 1552 1551 1558 1551 1541 1542 1538 1537 1539 1541 1544 1547 1550 1552 1554 1557 1559 1561 1562 1563 1564 1565 1566 1566 1566 1566 1567 1566 1566 1566 1565 1564 1563
1528 1527 1527 1528 1528 1528 1530 1534 1538 1544 1550 1560 1551 1556 1552 1541 1534 1531 1532 1535 1538 1541 1544 1547 1550 1553 1555 1557 1559 1561 1562 1563 1564 1565 1565 1566 1566 1566 1566 1566 1566 1565 1565 1564
1532 1529 1527 1527 1531 1531 1534 1545 1559 1562 1566 1562 1545 1548 1544 1525 1521 1523 1526 1530 1534 1538 1541 1544 1547 1550 1552 1555 1557 1559 1561 1562 1563 1564 1565 1565 1565 1566 1566 1566 1565 1565 1564 1564
1539 1540 1528 1526 1529 1534 1536 1543 1559 1567 1567 1559 1546 1546 1532 1517 1516 1519 1522 1526 1531 1534 1538 1541 1544 1547 1549 1552 1555 1557 1559 1560 1562 1563 1564 1564 1565 1565 1565 1565 1565 1565 1564 1564
1538 1538 1525 1523 1524 1528 1536 1541 1540 1551 1554 1559 1551 1539 1525 1516 1517 1519 1522 1526 1528 1531 1534 1537 1541 1544 1547 1550 1552 1555 1557 1559 1560 1562 1563 1563 1564 1564 1564 1564 1564 1564 1564 1563
1526 1535 1526 1523 1524 1525 1528 1532 1543 1550 1560 1565 1554 1544 1538 1523 1520 1519 1521 1523 1525 1528 1532 1535 1538 1541 1544 1547 1550 1553 1555 1557 1559 1560 1561 1562 1563 1563 1563 1564 1563 1563 1563 1563
1521 1532 1531 1527 1529 1530 1530 1533 1538 1547 1551 1561 1562 1548 1520 1518 1516 1517 1518 1520 1522 1525 1529 1532 1535 1539 1542 1545 1548 1551 1553 1555 1557 1558 1560 1561 1561 1562 1562 1563 1563 1562 1562 1562
1520 1531 1538 1530 1521 1519 1523 1526 1534 1547 1550 1550 1555 1545 1512 1512 1512 1514 1516 1518 1520 1523 1526 1529 1533 1536 1540 1542 1545 1548 1551 1553 1555 1556 1558 1559 1560 1560 1561 1561 1561 1561 1561 1561
1518 1531 1543 1541 1534 1525 1523 1522 1526 1534 1543 1550 1553 1541 1512 1511 1512 1513 1515 1517 1519 1521 1524 1527 1530 1533 1536 1539 1542 1545 1548 1550 1552 1554 1555 1557 1558 1558 1559 1559 1559 1560 1560 1559
1513 1527 1537 1542 1536 1527 1525 1521 1521 1530 1543 1544 1539 1530 1517 1513 1513 1513 1514 1515 1517 1520 1522 1525 1527 1530 1534 1537 1540 1542 1545 1548 1550 1551 1553 1554 1555 1556 1557 1557 1558 1558 1558 1558
1513 1525 1524 1523 1520 1520 1519 1518 1518 1523 1527 1533 1527 1523 1516 1511 1510 1510 1511 1513 1516 1518 1520 1522 1525 1528 1531 1534 1537 1540 1542 1545 1547 1549 1550 1552 1553 1554 1555 1555 1556 1556 1556 1556
1514 1521 1522 1522 1517 1518 1519 1515 1515 1516 1517 1519 1518 1517 1507 1506 1508 1509 1510 1512 1514 1516 1518 1520 1523 1525 1528 1531 1534 1536 1539 1541 1544 1545 1547 1549 1551 1552 1552 1553 1554 1554 1554 1554
1516 1521 1527 1531 1522 1520 1525 1514 1512 1513 1511 1512 1517 1511 1505 1506 1506 1507 1508 1510 1512 1513 1516 1518 1520 1522 1525 1527 1530 1533 1536 1539 1541 1542 1544 1546 1548 1549 1550 1551 1551 1551 1551 1552
1513 1520 1528 1531 1528 1535 1521 1504 1505 1508 1507 1505 1505 1503 1503 1504 1504 1505 1506 1508 1509 1511 1513 1515 1518 1520 1522 1525 1527 1530 1533 1535 1537 1539 1541 1543 1544 1546 1547 1548 1548 1549 1549 1549
1505 1515 1527 1534 1534 1529 1514 1504 1503 1506 1509 1504 1503 1502 1503 1503 1504 1506 1506 1507 1507 1509 1511 1513 1515 1517 1520 1522 1525 1527 1530 1532 1534 1535 1537 1539 1541 1542 1543 1544 1545 1546 1546 1546
1505 1509 1523 1531 1532 1534 1516 1501 1499 1503 1512 1503 1501 1501 1502 1503 1510 1508 1506 1506 1507 1508 1510 1511 1513 1515 1518 1520 1522 1524 1526 1528 1530 1532 1534 1536 1537 1539 1540 1541 1542 1542 1543 1543
1513 1517 1523 1529 1531 1523 1505 1499 1500 1516 1514 1502 1500 1500 1501 1502 1504 1504 1504 1505 1506 1507 1508 1510 1512 1513 1515 1517 1519 1521 1523 1525 1527 1529 1531 1533 1534 1535 1536 1537 1538 1539 1539 1540
1512 1518 1522 1527 1530 1523 1499 1499 1503 1504 1500 1500 1499 1499 1500 1501 1502 1503 1503 1504 1505 1505 1507 1508 1510 1512 1514 1515 1517 1518 1520 1522 1524 1526 1527 1529 1530 1532 1532 1533 1534 1535 1535 1536
1506 1506 1509 1512 1512 1501 1497 1496 1496 1496 1497 1498 1498 1499 1500 1500 1501 1502 1502 1503 1503 1504 1505 1507 1508 1510 1512 1513 1515 1516 1517 1519 1521 1522 1524 1525 1527 1528 1528 1529 1530 1530 1531 1531
1500 1498 1502 1505 1501 1498 1496 1495 1496 1496 1496 1497 1497 1498 1499 1500 1501 1501 1502 1502 1503 1504 1504 1506 1507 1508 1510 1511 1513 1514 1515 1517 1518 1519 1520 1521 1522 1523 1524 1525 1525 1526 1526 1526
1497 1497 1501 1502 1499 1497 1496 1496 1496 1496 1496 1496 1497 1498 1498 1499 1500 1500 1501 1501 1502 1502 1503 1504 1506 1507 1508 1509 1510 1511 1513 1514 1515 1516 1517 1518 1518 1519 1519 1520 1521 1521 1521 1522
1493 1494 1497 1498 1494 1494 1495 1495 1495 1495 1495 1495 1496 1497 1497 1498 1498 1499 1499 1500 1501 1501 1502 1503 1504 1505 1506 1507 1508 1509 1510 1511 1512 1512 1513 1514 1514 1515 1515 1515 1516 1516 1516 1516